This is the latest recevied weather packets stored in our database for station/object N9EA. If no packets are shown the sender has not sent any weather packets the latest 10 day(s).
| Time | Temp. | Humidity | Pressure | Rain* | Wind** | Luminosity | Snow |
|---|---|---|---|---|---|---|---|
| 1778088664 | 13.89° C | 37% | 1015.3 hPa | 0 mm | - | 906 W/m² | - |
| 1778088362 | 13.33° C | 38% | 1015.4 hPa | 0 mm | - | 865 W/m² | - |
| 1778088058 | 12.78° C | 42% | 1015.2 hPa | 0 mm | - | 863 W/m² | - |
| 1778087756 | 12.78° C | 38% | 1015.3 hPa | 0 mm | - | 732 W/m² | - |
| 1778087453 | 12.78° C | 38% | 1015.3 hPa | 0 mm | - | 796 W/m² | - |
| 1778087149 | 12.22° C | 39% | 1015.5 hPa | 0 mm | - | 773 W/m² | - |
| 1778086842 | 11.67° C | 39% | 1015.3 hPa | 0 mm | - | 626 W/m² | - |
| 1778086539 | 13.33° C | 36% | 1015.5 hPa | 0 mm | - | 343 W/m² | - |
| 1778086230 | 12.22° C | 36% | 1015.4 hPa | 0 mm | - | 654 W/m² | - |
| 1778085927 | 12.78° C | 36% | 1015.5 hPa | 0 mm | - | 641 W/m² | - |
| 1778085625 | 12.78° C | 37% | 1015.5 hPa | 0 mm | - | 725 W/m² | - |
| 1778085321 | 12.78° C | 37% | 1015.3 hPa | 0 mm | - | 605 W/m² | - |
| 1778085016 | 12.78° C | 38% | 1015.4 hPa | 0 mm | - | 647 W/m² | - |
| 1778084712 | 12.22° C | 39% | 1015.4 hPa | 0 mm | - | 734 W/m² | - |
| 1778084404 | 12.22° C | 36% | 1015.3 hPa | 0 mm | - | 674 W/m² | - |
| 1778084101 | 12.22° C | 36% | 1015.5 hPa | 0 mm | - | 590 W/m² | - |
| 1778083798 | 12.22° C | 37% | 1015.3 hPa | 0 mm | - | 526 W/m² | - |
| 1778083496 | 12.22° C | 36% | 1015.3 hPa | 0 mm | - | 457 W/m² | - |
| 1778083193 | 13.33° C | 36% | 1015.3 hPa | 0 mm | - | 660 W/m² | - |
| 1778082891 | 12.78° C | 37% | 1015.3 hPa | 0 mm | - | 700 W/m² | - |
| 1778081777 | 12.22° C | 36% | 1015.4 hPa | 0 mm | - | 561 W/m² | - |
| 1778081474 | 11.67° C | 36% | 1015.4 hPa | 0 mm | - | 572 W/m² | - |
| 1778081171 | 11.67° C | 37% | 1015.3 hPa | 0 mm | - | 563 W/m² | - |
| 1778080869 | 11.67° C | 38% | 1015.2 hPa | 0 mm | - | 434 W/m² | - |
| 1778080567 | 11.67° C | 38% | 1015.2 hPa | 0 mm | - | 537 W/m² | - |
* Rain latest hour (hover to see other rain measurements)
** Current wind speed in m/s (hover to see current wind gust speed)